This demonstration page uses our WeatherBlox Daily Observations layout. Learn more.

Left ArrowRight Arrow

Hourly Observations for November 6, 2015

Temp ( °F °C ) Dew Point ( °F °C ) Humidity (%) Winds ( mph kmh ) Pressure ( in mb ) Visibility ( mi km ) Precip ( " mm )
12:53 am 00:53 Clear 41 5 30 -1.1 65 65 Calm 30.30 1026 10 16 0.00 0.00
1:53 am 01:53 Clear 40 4.4 31 -0.6 70 70 NW 7 11 30.29 1026 10 16 0.00 0.00
2:53 am 02:53 Clear 39 3.9 29 -1.7 67 67 Calm 30.29 1026 10 16 0.00 0.00
3:53 am 03:53 Clear 35 1.7 27 -2.8 72 72 Calm 30.29 1026 10 16 0.00 0.00
4:53 am 04:53 Clear 36 2.2 29 -1.7 76 76 Calm 30.29 1026 10 16 0.00 0.00
5:53 am 05:53 Clear 36 2.2 28 -2.2 73 73 Calm 30.29 1026 10 16 0.00 0.00
6:53 am 06:53 Sunny 34 1.1 28 -2.2 79 79 Calm 30.29 1026 10 16 0.00 0.00
7:53 am 07:53 Sunny 39 3.9 31 -0.6 73 73 Calm 30.30 1026 10 16 0.00 0.00
8:53 am 08:53 Sunny 51 10.6 34 1.1 52 52 Calm 30.29 1026 10 16 0.00 0.00
9:53 am 09:53 Sunny 64 17.8 34 1.1 33 33 N 15 24 30.27 1025 10 16 0.00 0.00
10:53 am 10:53 Sunny 67 19.4 34 1.1 30 30 N 10 17 30.26 1025 10 16 0.00 0.00
11:53 am 11:53 Sunny 69 20.6 33 0.6 26 26 Calm 30.22 1024 10 16 0.00 0.00
12:53 pm 12:53 Sunny 73 22.8 31 -0.6 21 21 NE 9 15 30.19 1022 10 16 0.00 0.00
1:53 pm 13:53 Sunny 74 23.3 30 -1.1 20 20 NNE 9 15 30.16 1022 10 16 0.00 0.00
2:53 pm 14:53 Sunny 74 23.3 30 -1.1 20 20 NNE 10 17 30.15 1021 10 16 0.00 0.00
3:53 pm 15:53 Sunny 74 23.3 30 -1.1 20 20 NNE 9 15 30.15 1021 10 16 0.00 0.00
4:53 pm 16:53 Sunny 69 20.6 32 0 25 25 NNW 3 6 30.14 1021 10 16 0.00 0.00
5:53 pm 17:53 Clear 60 15.6 33 0.6 36 36 WNW 5 7 30.14 1021 8 13 0.00 0.00
6:53 pm 18:53 Clear 56 13.3 33 0.6 42 42 Calm 30.16 1021 10 16 0.00 0.00
7:53 pm 19:53 Clear 55 12.8 34 1.1 45 45 SSE 10 17 30.17 1022 10 16 0.00 0.00
8:53 pm 20:53 Clear 53 11.7 36 2.2 52 52 Calm 30.17 1022 10 16 0.00 0.00
9:53 pm 21:53 Clear 50 10 36 2.2 59 59 N 3 6 30.18 1022 10 16 0.00 0.00
10:53 pm 22:53 Clear 46 7.8 34 1.1 63 63 NNE 6 9 30.19 1022 10 16 0.00 0.00
11:53 pm 23:53 Clear 45 7.2 35 1.7 68 68 Calm 30.19 1022 9 14 0.00 0.00

Powered by AerisWeather